Time,TemperatureF,DewpointF,PressureIn,WindDirection,WindDirectionDegrees,WindSpeedMPH,WindSpeedGustMPH,Humidity,HourlyPrecipIn,Conditions,Clouds,dailyrainin,SoftwareType,DateUTC
2013-08-11 00:04:00,64.3,57.6,29.95,NNW,328,0.0,0.0,79,0.00,,,0.00,Wunderground v.1.15,2013-08-11 04:04:00,
2013-08-11 00:09:00,64.3,58.3,29.95,NNW,327,0.0,0.0,81,0.00,,,0.00,Wunderground v.1.15,2013-08-11 04:09:00,
2013-08-11 00:14:00,64.3,58.3,29.96,NNW,328,0.0,0.0,81,0.00,,,0.00,Wunderground v.1.15,2013-08-11 04:14:00,
2013-08-11 00:19:00,64.1,57.5,29.96,NNW,327,0.0,0.0,79,0.00,,,0.00,Wunderground v.1.15,2013-08-11 04:19:00,
2013-08-11 00:24:00,64.0,57.0,29.96,NNW,327,0.0,0.0,78,0.00,,,0.00,Wunderground v.1.15,2013-08-11 04:24:00,
2013-08-11 00:29:00,63.8,56.8,29.96,NNW,328,0.0,0.0,78,0.00,,,0.00,Wunderground v.1.15,2013-08-11 04:29:00,
2013-08-11 00:34:00,63.6,57.0,29.96,NNW,328,0.0,0.0,79,0.00,,,0.00,Wunderground v.1.15,2013-08-11 04:34:00,
2013-08-11 00:39:00,63.3,56.7,29.96,NNW,328,0.0,0.0,79,0.00,,,0.00,Wunderground v.1.15,2013-08-11 04:39:00,
2013-08-11 00:44:00,63.1,56.8,29.96,NNW,328,0.0,0.0,80,0.00,,,0.00,Wunderground v.1.15,2013-08-11 04:44:00,
2013-08-11 00:49:00,62.8,56.9,29.96,NNW,327,0.0,0.0,81,0.00,,,0.00,Wunderground v.1.15,2013-08-11 04:49:00,
2013-08-11 00:54:00,62.6,57.0,29.96,NNW,328,0.0,0.0,82,0.00,,,0.00,Wunderground v.1.15,2013-08-11 04:54:00,
2013-08-11 00:59:00,62.3,56.7,29.96,NNW,327,0.0,0.0,82,0.00,,,0.00,Wunderground v.1.15,2013-08-11 04:59:00,
2013-08-11 01:04:00,62.1,56.5,29.96,NNW,328,0.0,0.0,82,0.00,,,0.00,Wunderground v.1.15,2013-08-11 05:04:00,
2013-08-11 01:09:00,61.9,56.7,29.97,NNW,327,0.0,0.0,83,0.00,,,0.00,Wunderground v.1.15,2013-08-11 05:09:00,
2013-08-11 01:19:00,61.6,56.7,29.97,NNW,328,0.0,0.0,84,0.00,,,0.00,Wunderground v.1.15,2013-08-11 05:19:00,
2013-08-11 01:24:00,61.4,56.5,29.97,NNW,327,0.0,0.0,84,0.00,,,0.00,Wunderground v.1.15,2013-08-11 05:24:00,
2013-08-11 01:29:00,61.3,56.4,29.97,NNW,328,0.0,0.0,84,0.00,,,0.00,Wunderground v.1.15,2013-08-11 05:29:00,
2013-08-11 01:39:00,60.9,56.0,29.97,NNW,327,0.0,0.0,84,0.00,,,0.00,Wunderground v.1.15,2013-08-11 05:39:00,
2013-08-11 01:44:00,60.8,55.9,29.97,NNW,328,0.0,0.0,84,0.00,,,0.00,Wunderground v.1.15,2013-08-11 05:44:00,
2013-08-11 01:49:00,60.7,55.8,29.97,NNW,327,0.0,0.0,84,0.00,,,0.00,Wunderground v.1.15,2013-08-11 05:49:00,
2013-08-11 01:54:00,60.7,56.2,29.97,NNW,328,0.0,0.0,85,0.00,,,0.00,Wunderground v.1.15,2013-08-11 05:54:00,
2013-08-11 02:04:00,60.6,56.1,29.97,NNW,327,0.0,0.0,85,0.00,,,0.00,Wunderground v.1.15,2013-08-11 06:04:00,
2013-08-11 02:09:00,60.5,56.3,29.97,NNW,327,0.0,0.0,86,0.00,,,0.00,Wunderground v.1.15,2013-08-11 06:09:00,
2013-08-11 02:19:00,60.1,56.2,29.97,NNW,328,0.0,0.0,87,0.00,,,0.00,Wunderground v.1.15,2013-08-11 06:19:00,
2013-08-11 02:24:00,59.9,56.3,29.97,NNW,327,0.0,0.0,88,0.00,,,0.00,Wunderground v.1.15,2013-08-11 06:24:00,
2013-08-11 02:29:00,59.6,56.0,29.97,NNW,328,0.0,0.0,88,0.00,,,0.00,Wunderground v.1.15,2013-08-11 06:29:00,
2013-08-11 02:34:00,59.5,56.3,29.97,NNW,328,0.0,0.0,89,0.00,,,0.00,Wunderground v.1.15,2013-08-11 06:34:00,
2013-08-11 02:44:00,59.4,56.2,29.97,NNW,328,0.0,0.0,89,0.00,,,0.00,Wunderground v.1.15,2013-08-11 06:44:00,
2013-08-11 02:49:00,59.1,55.9,29.97,NNW,328,0.0,0.0,89,0.00,,,0.00,Wunderground v.1.15,2013-08-11 06:49:00,
2013-08-11 02:59:00,59.0,55.8,29.97,NNW,328,0.0,0.0,89,0.00,,,0.00,Wunderground v.1.15,2013-08-11 06:59:00,
2013-08-11 03:09:00,58.7,55.5,29.98,NNW,328,0.0,0.0,89,0.00,,,0.00,Wunderground v.1.15,2013-08-11 07:09:00,
2013-08-11 03:14:00,58.6,55.4,29.97,NNW,327,0.0,0.0,89,0.00,,,0.00,Wunderground v.1.15,2013-08-11 07:14:00,
2013-08-11 03:19:00,58.5,55.6,29.97,NNW,328,0.0,0.0,90,0.00,,,0.00,Wunderground v.1.15,2013-08-11 07:19:00,
2013-08-11 03:24:00,58.4,55.5,29.98,NNW,328,0.0,0.0,90,0.00,,,0.00,Wunderground v.1.15,2013-08-11 07:24:00,
2013-08-11 03:29:00,58.2,55.3,29.98,NNW,327,0.0,0.0,90,0.00,,,0.00,Wunderground v.1.15,2013-08-11 07:29:00,
2013-08-11 03:34:00,58.0,55.1,29.98,NNW,328,0.0,0.0,90,0.00,,,0.00,Wunderground v.1.15,2013-08-11 07:34:00,
2013-08-11 03:39:00,57.8,54.9,29.98,NNW,327,0.0,0.0,90,0.00,,,0.00,Wunderground v.1.15,2013-08-11 07:39:00,
2013-08-11 03:49:00,57.4,54.8,29.98,NNW,327,0.0,0.0,91,0.00,,,0.00,Wunderground v.1.15,2013-08-11 07:49:00,
2013-08-11 03:54:00,57.3,55.0,29.98,NNW,328,0.0,0.0,92,0.00,,,0.00,Wunderground v.1.15,2013-08-11 07:54:00,
2013-08-11 04:00:00,57.3,55.0,29.98,NNW,327,0.0,0.0,92,0.00,,,0.00,Wunderground v.1.15,2013-08-11 08:00:00,
2013-08-11 04:09:00,57.2,54.9,29.98,NNW,328,0.0,0.0,92,0.00,,,0.00,Wunderground v.1.15,2013-08-11 08:09:00,
2013-08-11 04:19:00,57.1,54.8,29.99,NNW,328,0.0,0.0,92,0.00,,,0.00,Wunderground v.1.15,2013-08-11 08:19:00,
2013-08-11 04:29:00,56.9,54.6,29.99,NNW,327,0.0,0.0,92,0.00,,,0.00,Wunderground v.1.15,2013-08-11 08:29:00,
2013-08-11 04:34:00,56.9,54.6,29.99,NNW,328,0.0,0.0,92,0.00,,,0.00,Wunderground v.1.15,2013-08-11 08:34:00,
2013-08-11 04:39:00,56.8,54.5,29.99,NNW,328,0.0,0.0,92,0.00,,,0.00,Wunderground v.1.15,2013-08-11 08:39:00,
2013-08-11 04:44:00,56.7,54.4,29.99,NNW,328,0.0,0.0,92,0.00,,,0.00,Wunderground v.1.15,2013-08-11 08:44:00,
2013-08-11 04:54:00,56.3,54.0,29.99,NNW,328,0.0,0.0,92,0.00,,,0.00,Wunderground v.1.15,2013-08-11 08:54:00,
2013-08-11 04:59:00,56.2,53.9,29.99,NNW,327,0.0,0.0,92,0.00,,,0.00,Wunderground v.1.15,2013-08-11 08:59:00,
2013-08-11 05:04:00,56.0,54.0,29.99,NNW,328,0.0,0.0,93,0.00,,,0.00,Wunderground v.1.15,2013-08-11 09:04:00,
2013-08-11 05:09:00,55.9,53.9,29.99,NNW,327,0.0,0.0,93,0.00,,,0.00,Wunderground v.1.15,2013-08-11 09:09:00,
2013-08-11 05:24:00,55.6,53.6,29.99,NNW,327,0.0,0.0,93,0.00,,,0.00,Wunderground v.1.15,2013-08-11 09:24:00,
2013-08-11 05:29:00,55.5,53.8,30.00,NNW,328,0.0,0.0,94,0.00,,,0.00,Wunderground v.1.15,2013-08-11 09:29:00,
2013-08-11 05:34:00,55.4,53.7,30.00,NNW,327,0.0,0.0,94,0.00,,,0.00,Wunderground v.1.15,2013-08-11 09:34:00,
2013-08-11 05:39:00,55.4,53.7,30.00,NNW,327,0.0,0.0,94,0.00,,,0.00,Wunderground v.1.15,2013-08-11 09:39:00,
2013-08-11 05:44:00,55.4,53.7,30.00,NNW,328,0.0,0.0,94,0.00,,,0.00,Wunderground v.1.15,2013-08-11 09:44:00,
2013-08-11 05:49:00,55.4,53.7,30.00,NNW,328,0.0,0.0,94,0.00,,,0.00,Wunderground v.1.15,2013-08-11 09:49:00,
2013-08-11 05:54:00,55.6,54.2,30.00,NNW,327,0.0,0.0,95,0.00,,,0.00,Wunderground v.1.15,2013-08-11 09:54:00,
2013-08-11 05:59:00,55.6,54.2,30.00,NNW,328,0.0,0.0,95,0.00,,,0.00,Wunderground v.1.15,2013-08-11 09:59:00,
2013-08-11 06:09:00,55.5,54.1,30.00,NNW,328,0.0,0.0,95,0.00,,,0.00,Wunderground v.1.15,2013-08-11 10:09:00,
2013-08-11 06:14:00,55.4,54.0,30.01,NNW,327,0.0,0.0,95,0.00,,,0.00,Wunderground v.1.15,2013-08-11 10:14:00,
2013-08-11 06:19:00,55.3,53.9,30.01,NNW,328,0.0,0.0,95,0.00,,,0.00,Wunderground v.1.15,2013-08-11 10:19:00,
2013-08-11 06:29:00,55.4,54.0,30.01,NNW,328,0.0,0.0,95,0.00,,,0.00,Wunderground v.1.15,2013-08-11 10:29:00,
2013-08-11 06:34:00,55.5,54.1,30.01,NNW,327,0.0,0.0,95,0.00,,,0.00,Wunderground v.1.15,2013-08-11 10:34:00,
2013-08-11 06:39:00,55.7,54.3,30.01,NNW,328,0.0,0.0,95,0.00,,,0.00,Wunderground v.1.15,2013-08-11 10:39:00,
2013-08-11 06:44:00,55.8,54.4,30.01,NNW,327,0.0,0.0,95,0.00,,,0.00,Wunderground v.1.15,2013-08-11 10:44:00,
2013-08-11 06:49:00,56.1,55.0,30.01,NNW,328,0.0,0.0,96,0.00,,,0.00,Wunderground v.1.15,2013-08-11 10:49:00,
2013-08-11 06:54:00,56.4,55.0,30.01,NNW,328,0.0,0.0,95,0.00,,,0.00,Wunderground v.1.15,2013-08-11 10:54:00,
2013-08-11 06:59:00,56.8,55.1,30.01,NNW,327,0.0,0.0,94,0.00,,,0.00,Wunderground v.1.15,2013-08-11 10:59:00,
2013-08-11 07:04:00,57.1,55.4,30.02,NNW,328,0.0,0.0,94,0.00,,,0.00,Wunderground v.1.15,2013-08-11 11:04:00,
2013-08-11 07:09:00,57.5,55.8,30.02,NNW,327,0.0,0.0,94,0.00,,,0.00,Wunderground v.1.15,2013-08-11 11:09:00,
2013-08-11 07:15:00,57.8,56.1,30.02,NNW,327,0.0,0.0,94,0.00,,,0.00,Wunderground v.1.15,2013-08-11 11:15:00,
2013-08-11 07:24:00,58.6,56.9,30.02,NNW,328,0.0,0.0,94,0.00,,,0.00,Wunderground v.1.15,2013-08-11 11:24:00,
2013-08-11 07:34:00,59.3,57.0,30.02,NNW,328,0.0,0.0,92,0.00,,,0.00,Wunderground v.1.15,2013-08-11 11:34:00,
2013-08-11 07:44:00,60.5,57.9,30.02,NNW,328,0.0,0.0,91,0.00,,,0.00,Wunderground v.1.15,2013-08-11 11:44:00,
2013-08-11 07:49:00,61.2,58.2,30.02,NNW,327,0.0,0.0,90,0.00,,,0.00,Wunderground v.1.15,2013-08-11 11:49:00,
2013-08-11 07:54:00,61.8,58.2,30.02,NNW,328,0.0,0.0,88,0.00,,,0.00,Wunderground v.1.15,2013-08-11 11:54:00,
2013-08-11 08:04:00,63.3,58.7,30.01,NNW,328,0.0,0.0,85,0.00,,,0.00,Wunderground v.1.15,2013-08-11 12:04:00,
2013-08-11 08:09:00,64.1,59.2,30.02,NNW,328,0.0,0.0,84,0.00,,,0.00,Wunderground v.1.15,2013-08-11 12:09:00,
2013-08-11 08:14:00,64.7,58.7,30.02,NNW,328,0.0,0.0,81,0.00,,,0.00,Wunderground v.1.15,2013-08-11 12:14:00,
2013-08-11 08:19:00,65.3,59.0,30.01,NNW,328,0.0,0.0,80,0.00,,,0.00,Wunderground v.1.15,2013-08-11 12:19:00,
2013-08-11 08:24:00,65.9,59.2,30.02,NNW,327,0.0,0.0,79,0.00,,,0.00,Wunderground v.1.15,2013-08-11 12:24:00,
2013-08-11 08:29:00,66.4,59.7,30.02,NNW,327,0.0,0.0,79,0.00,,,0.00,Wunderground v.1.15,2013-08-11 12:29:00,
2013-08-11 08:34:00,66.8,59.0,30.02,NNW,328,0.0,0.0,76,0.00,,,0.00,Wunderground v.1.15,2013-08-11 12:34:00,
2013-08-11 08:39:00,67.1,58.9,30.02,NNW,327,0.0,0.0,75,0.00,,,0.00,Wunderground v.1.15,2013-08-11 12:39:00,
2013-08-11 08:44:00,67.5,58.9,30.02,NNW,328,0.0,0.0,74,0.00,,,0.00,Wunderground v.1.15,2013-08-11 12:44:00,
2013-08-11 08:54:00,68.5,59.5,30.02,NNW,328,0.0,0.0,73,0.00,,,0.00,Wunderground v.1.15,2013-08-11 12:54:00,
2013-08-11 09:04:00,69.9,60.8,30.02,NW,321,0.0,0.0,73,0.00,,,0.00,Wunderground v.1.15,2013-08-11 13:04:00,
2013-08-11 09:09:00,70.3,60.8,30.02,NW,321,0.0,0.0,72,0.00,,,0.00,Wunderground v.1.15,2013-08-11 13:09:00,
2013-08-11 09:14:00,70.4,59.7,30.01,NW,321,0.0,0.0,69,0.00,,,0.00,Wunderground v.1.15,2013-08-11 13:14:00,
2013-08-11 09:19:00,70.7,60.0,30.01,NW,321,0.0,0.0,69,0.00,,,0.00,Wunderground v.1.15,2013-08-11 13:19:00,
2013-08-11 09:24:00,71.1,60.4,30.01,NW,321,0.0,0.0,69,0.00,,,0.00,Wunderground v.1.15,2013-08-11 13:24:00,
2013-08-11 09:29:00,71.3,59.8,30.01,NW,321,0.0,0.0,67,0.00,,,0.00,Wunderground v.1.15,2013-08-11 13:29:00,
2013-08-11 09:34:00,71.6,60.1,30.01,NW,321,0.0,0.0,67,0.00,,,0.00,Wunderground v.1.15,2013-08-11 13:34:00,
2013-08-11 09:39:00,71.7,60.6,30.01,NW,321,0.0,0.0,68,0.00,,,0.00,Wunderground v.1.15,2013-08-11 13:39:00,
2013-08-11 09:49:00,72.7,61.1,30.01,NW,321,0.0,0.0,67,0.00,,,0.00,Wunderground v.1.15,2013-08-11 13:49:00,
2013-08-11 09:59:00,73.1,60.6,30.01,NW,321,0.0,0.0,65,0.00,,,0.00,Wunderground v.1.15,2013-08-11 13:59:00,
2013-08-11 10:04:00,73.3,60.8,30.01,NW,321,0.0,0.0,65,0.00,,,0.00,Wunderground v.1.15,2013-08-11 14:04:00,
2013-08-11 10:14:00,73.3,59.9,30.01,NW,321,0.0,0.0,63,0.00,,,0.00,Wunderground v.1.15,2013-08-11 14:14:00,
2013-08-11 10:19:00,73.4,60.9,30.01,NW,321,0.0,0.0,65,0.00,,,0.00,Wunderground v.1.15,2013-08-11 14:19:00,
2013-08-11 10:29:00,73.9,60.1,30.01,NW,321,0.0,0.0,62,0.00,,,0.00,Wunderground v.1.15,2013-08-11 14:29:00,
2013-08-11 10:39:00,74.6,59.8,30.01,NW,321,0.0,1.0,60,0.00,,,0.00,Wunderground v.1.15,2013-08-11 14:39:00,
2013-08-11 10:44:00,74.7,59.9,30.01,NW,321,0.0,1.0,60,0.00,,,0.00,Wunderground v.1.15,2013-08-11 14:44:00,
2013-08-11 10:54:00,74.8,60.9,30.00,NW,321,0.0,0.0,62,0.00,,,0.00,Wunderground v.1.15,2013-08-11 14:54:00,
2013-08-11 11:04:00,75.0,60.6,30.00,NW,321,0.0,0.0,61,0.00,,,0.00,Wunderground v.1.15,2013-08-11 15:04:00,
2013-08-11 11:14:00,75.1,59.8,30.00,NW,321,0.0,0.0,59,0.00,,,0.00,Wunderground v.1.15,2013-08-11 15:14:00,
2013-08-11 11:19:00,75.2,58.9,30.00,NW,321,0.0,0.0,57,0.00,,,0.00,Wunderground v.1.15,2013-08-11 15:19:00,
2013-08-11 11:24:00,75.4,60.1,30.00,NW,321,0.0,0.0,59,0.00,,,0.00,Wunderground v.1.15,2013-08-11 15:24:00,
2013-08-11 11:29:00,75.5,59.2,30.00,NW,321,0.0,0.0,57,0.00,,,0.00,Wunderground v.1.15,2013-08-11 15:29:00,
2013-08-11 11:40:00,75.5,57.7,30.00,NW,321,0.0,0.0,54,0.00,,,0.00,Wunderground v.1.15,2013-08-11 15:40:00,
2013-08-11 11:49:00,75.1,57.3,30.00,NW,321,0.0,0.0,54,0.00,,,0.00,Wunderground v.1.15,2013-08-11 15:49:00,
2013-08-11 11:54:00,75.3,58.0,30.00,NW,321,0.0,0.0,55,0.00,,,0.00,Wunderground v.1.15,2013-08-11 15:54:00,
2013-08-11 11:59:00,75.6,57.8,30.00,NW,321,0.0,2.0,54,0.00,,,0.00,Wunderground v.1.15,2013-08-11 15:59:00,
2013-08-11 12:04:00,75.7,56.8,30.00,NW,321,0.0,2.0,52,0.00,,,0.00,Wunderground v.1.15,2013-08-11 16:04:00,
2013-08-11 12:09:00,75.8,57.4,30.00,NW,321,0.0,0.0,53,0.00,,,0.00,Wunderground v.1.15,2013-08-11 16:09:00,
2013-08-11 12:19:00,76.0,57.6,29.99,NW,325,0.0,0.0,53,0.00,,,0.00,Wunderground v.1.15,2013-08-11 16:19:00,
2013-08-11 12:29:00,76.5,57.6,29.99,NW,325,0.0,1.0,52,0.00,,,0.00,Wunderground v.1.15,2013-08-11 16:29:00,
2013-08-11 12:34:00,76.3,57.4,29.99,NW,325,0.0,1.0,52,0.00,,,0.00,Wunderground v.1.15,2013-08-11 16:34:00,
2013-08-11 12:39:00,76.4,59.0,29.99,NW,325,0.0,0.0,55,0.00,,,0.00,Wunderground v.1.15,2013-08-11 16:39:00,
2013-08-11 12:44:00,76.8,58.4,29.99,NW,325,0.0,0.0,53,0.00,,,0.00,Wunderground v.1.15,2013-08-11 16:44:00,
2013-08-11 12:54:00,77.1,58.1,29.98,NW,325,0.0,0.0,52,0.00,,,0.00,Wunderground v.1.15,2013-08-11 16:54:00,
2013-08-11 13:04:00,77.4,58.4,29.98,NW,323,0.0,1.0,52,0.00,,,0.00,Wunderground v.1.15,2013-08-11 17:04:00,
2013-08-11 13:09:00,77.5,58.5,29.98,NW,323,0.0,0.0,52,0.00,,,0.00,Wunderground v.1.15,2013-08-11 17:09:00,
2013-08-11 13:14:00,77.5,57.9,29.98,NW,323,0.0,0.0,51,0.00,,,0.00,Wunderground v.1.15,2013-08-11 17:14:00,
2013-08-11 13:19:00,77.6,58.0,29.98,NW,323,0.0,0.0,51,0.00,,,0.00,Wunderground v.1.15,2013-08-11 17:19:00,
2013-08-11 13:24:00,77.6,58.6,29.98,NW,323,0.0,0.0,52,0.00,,,0.00,Wunderground v.1.15,2013-08-11 17:24:00,
2013-08-11 13:29:00,77.7,58.7,29.98,NW,323,0.0,0.0,52,0.00,,,0.00,Wunderground v.1.15,2013-08-11 17:29:00,
2013-08-11 13:34:00,77.8,58.2,29.98,NW,323,0.0,0.0,51,0.00,,,0.00,Wunderground v.1.15,2013-08-11 17:34:00,
2013-08-11 13:44:00,77.9,57.8,29.97,NW,323,0.0,1.0,50,0.00,,,0.00,Wunderground v.1.15,2013-08-11 17:44:00,
2013-08-11 13:49:00,78.0,58.4,29.97,NW,323,0.0,0.0,51,0.00,,,0.00,Wunderground v.1.15,2013-08-11 17:49:00,
2013-08-11 13:59:00,78.2,59.1,29.97,NNW,343,0.0,2.0,52,0.00,,,0.00,Wunderground v.1.15,2013-08-11 17:59:00,
2013-08-11 14:04:00,78.2,59.1,29.97,NNW,342,1.0,2.0,52,0.00,,,0.00,Wunderground v.1.15,2013-08-11 18:04:00,
2013-08-11 14:14:00,77.7,59.2,29.97,NNW,342,0.0,1.0,53,0.00,,,0.00,Wunderground v.1.15,2013-08-11 18:14:00,
2013-08-11 14:19:00,77.5,58.5,29.97,NNW,343,1.0,2.0,52,0.00,,,0.00,Wunderground v.1.15,2013-08-11 18:19:00,
2013-08-11 14:24:00,77.3,58.3,29.97,NNW,342,0.0,2.0,52,0.00,,,0.00,Wunderground v.1.15,2013-08-11 18:24:00,
2013-08-11 14:29:00,77.1,58.6,29.96,NNW,343,0.0,1.0,53,0.00,,,0.00,Wunderground v.1.15,2013-08-11 18:29:00,
2013-08-11 14:34:00,77.0,58.0,29.97,NNW,343,0.0,1.0,52,0.00,,,0.00,Wunderground v.1.15,2013-08-11 18:34:00,
2013-08-11 14:39:00,77.0,59.6,29.96,NNW,343,0.0,0.0,55,0.00,,,0.00,Wunderground v.1.15,2013-08-11 18:39:00,
2013-08-11 14:49:00,77.1,59.7,29.96,NNW,342,0.0,0.0,55,0.00,,,0.00,Wunderground v.1.15,2013-08-11 18:49:00,
2013-08-11 14:59:00,77.0,58.6,29.96,NNW,342,0.0,0.0,53,0.00,,,0.00,Wunderground v.1.15,2013-08-11 18:59:00,
2013-08-11 15:04:00,77.1,59.2,29.96,NNW,343,0.0,0.0,54,0.00,,,0.00,Wunderground v.1.15,2013-08-11 19:04:00,
2013-08-11 15:09:00,77.3,59.4,29.96,NNW,343,0.0,0.0,54,0.00,,,0.00,Wunderground v.1.15,2013-08-11 19:09:00,
2013-08-11 15:15:00,77.3,58.8,29.96,NNW,343,0.0,0.0,53,0.00,,,0.00,Wunderground v.1.15,2013-08-11 19:15:00,
2013-08-11 15:24:00,77.6,60.7,29.96,NNW,342,0.0,4.0,56,0.00,,,0.00,Wunderground v.1.15,2013-08-11 19:24:00,
2013-08-11 15:29:00,77.7,59.7,29.96,NNW,343,0.0,0.0,54,0.00,,,0.00,Wunderground v.1.15,2013-08-11 19:29:00,
2013-08-11 15:34:00,77.7,59.2,29.96,NNW,342,0.0,0.0,53,0.00,,,0.00,Wunderground v.1.15,2013-08-11 19:34:00,
2013-08-11 15:39:00,77.9,59.4,29.96,NNW,343,0.0,2.0,53,0.00,,,0.00,Wunderground v.1.15,2013-08-11 19:39:00,
2013-08-11 15:44:00,78.0,59.5,29.96,North,10,1.0,2.0,53,0.00,,,0.00,Wunderground v.1.15,2013-08-11 19:44:00,
2013-08-11 15:49:00,78.0,60.0,29.96,North,10,0.0,0.0,54,0.00,,,0.00,Wunderground v.1.15,2013-08-11 19:49:00,
2013-08-11 15:54:00,78.0,60.5,29.95,North,10,0.0,0.0,55,0.00,,,0.00,Wunderground v.1.15,2013-08-11 19:54:00,
2013-08-11 15:59:00,78.0,60.0,29.95,North,10,0.0,0.0,54,0.00,,,0.00,Wunderground v.1.15,2013-08-11 19:59:00,
2013-08-11 16:04:00,78.1,60.1,29.95,NNE,14,0.0,0.0,54,0.00,,,0.00,Wunderground v.1.15,2013-08-11 20:04:00,
2013-08-11 16:09:00,78.0,60.0,29.95,NNE,14,0.0,0.0,54,0.00,,,0.00,Wunderground v.1.15,2013-08-11 20:09:00,
2013-08-11 16:19:00,77.8,59.8,29.95,NNE,14,0.0,0.0,54,0.00,,,0.00,Wunderground v.1.15,2013-08-11 20:19:00,
2013-08-11 16:24:00,77.9,60.4,29.95,NNE,13,0.0,0.0,55,0.00,,,0.00,Wunderground v.1.15,2013-08-11 20:24:00,
2013-08-11 16:29:00,78.1,59.6,29.95,NNE,13,0.0,0.0,53,0.00,,,0.00,Wunderground v.1.15,2013-08-11 20:29:00,
2013-08-11 16:39:00,77.9,59.9,29.95,NNW,332,0.0,0.0,54,0.00,,,0.00,Wunderground v.1.15,2013-08-11 20:39:00,
2013-08-11 16:44:00,77.6,60.2,29.95,NNW,331,0.0,0.0,55,0.00,,,0.00,Wunderground v.1.15,2013-08-11 20:44:00,
2013-08-11 16:49:00,77.5,59.5,29.94,NNW,331,0.0,0.0,54,0.00,,,0.00,Wunderground v.1.15,2013-08-11 20:49:00,
2013-08-11 16:59:00,77.1,59.2,29.94,NNW,331,0.0,1.0,54,0.00,,,0.00,Wunderground v.1.15,2013-08-11 20:59:00,
2013-08-11 17:04:00,77.3,60.4,29.94,NNW,331,0.0,1.0,56,0.00,,,0.00,Wunderground v.1.15,2013-08-11 21:04:00,
2013-08-11 17:10:00,77.3,59.4,29.94,NNW,331,0.0,0.0,54,0.00,,,0.00,Wunderground v.1.15,2013-08-11 21:10:00,
2013-08-11 17:19:00,77.1,59.7,29.94,NNW,332,0.0,0.0,55,0.00,,,0.00,Wunderground v.1.15,2013-08-11 21:19:00,
2013-08-11 17:24:00,77.0,59.1,29.94,NNW,331,0.0,0.0,54,0.00,,,0.00,Wunderground v.1.15,2013-08-11 21:24:00,
2013-08-11 17:34:00,76.8,58.9,29.94,NNW,331,0.0,0.0,54,0.00,,,0.00,Wunderground v.1.15,2013-08-11 21:34:00,
2013-08-11 17:39:00,76.7,59.3,29.94,NNW,331,0.0,0.0,55,0.00,,,0.00,Wunderground v.1.15,2013-08-11 21:39:00,
2013-08-11 17:44:00,76.6,59.2,29.94,NNW,331,0.0,0.0,55,0.00,,,0.00,Wunderground v.1.15,2013-08-11 21:44:00,
2013-08-11 17:54:00,76.3,59.4,29.94,NNW,332,0.0,0.0,56,0.00,,,0.00,Wunderground v.1.15,2013-08-11 21:54:00,
2013-08-11 17:59:00,76.1,59.3,29.94,NNW,332,0.0,0.0,56,0.00,,,0.00,Wunderground v.1.15,2013-08-11 21:59:00,
2013-08-11 18:04:00,76.0,59.2,29.93,NNW,331,0.0,0.0,56,0.00,,,0.00,Wunderground v.1.15,2013-08-11 22:04:00,
2013-08-11 18:09:00,75.8,59.0,29.93,NNW,332,0.0,0.0,56,0.00,,,0.00,Wunderground v.1.15,2013-08-11 22:09:00,
2013-08-11 18:14:00,75.8,59.5,29.93,NNW,331,0.0,0.0,57,0.00,,,0.00,Wunderground v.1.15,2013-08-11 22:14:00,
2013-08-11 18:19:00,75.6,59.3,29.94,NNW,332,0.0,0.0,57,0.00,,,0.00,Wunderground v.1.15,2013-08-11 22:19:00,
2013-08-11 18:29:00,75.2,58.9,29.94,NNW,331,0.0,0.0,57,0.00,,,0.00,Wunderground v.1.15,2013-08-11 22:29:00,
2013-08-11 18:39:00,74.9,59.1,29.94,NNW,331,0.0,0.0,58,0.00,,,0.00,Wunderground v.1.15,2013-08-11 22:39:00,
2013-08-11 18:49:00,74.5,58.8,29.94,NNW,332,0.0,0.0,58,0.00,,,0.00,Wunderground v.1.15,2013-08-11 22:49:00,
2013-08-11 18:54:00,74.3,58.6,29.94,NNW,332,0.0,0.0,58,0.00,,,0.00,Wunderground v.1.15,2013-08-11 22:54:00,
2013-08-11 19:00:00,74.1,58.9,29.94,NNW,331,0.0,0.0,59,0.00,,,0.00,Wunderground v.1.15,2013-08-11 23:00:00,
2013-08-11 19:09:00,73.7,59.9,29.94,NNW,332,0.0,0.0,62,0.00,,,0.00,Wunderground v.1.15,2013-08-11 23:09:00,
2013-08-11 19:14:00,73.5,60.1,29.94,NNW,331,0.0,0.0,63,0.00,,,0.00,Wunderground v.1.15,2013-08-11 23:14:00,
2013-08-11 19:19:00,73.3,60.4,29.94,NNW,331,0.0,0.0,64,0.00,,,0.00,Wunderground v.1.15,2013-08-11 23:19:00,
2013-08-11 19:24:00,73.0,60.1,29.94,NNW,332,0.0,0.0,64,0.00,,,0.00,Wunderground v.1.15,2013-08-11 23:24:00,
2013-08-11 19:30:00,72.7,60.3,29.94,NNW,331,0.0,0.0,65,0.00,,,0.00,Wunderground v.1.15,2013-08-11 23:30:00,
2013-08-11 19:39:00,72.0,61.3,29.94,NNW,332,0.0,0.0,69,0.00,,,0.00,Wunderground v.1.15,2013-08-11 23:39:00,
2013-08-11 19:44:00,71.5,61.2,29.94,NNW,331,0.0,0.0,70,0.00,,,0.00,Wunderground v.1.15,2013-08-11 23:44:00,
2013-08-11 19:49:00,71.0,61.1,29.94,NNW,331,0.0,0.0,71,0.00,,,0.00,Wunderground v.1.15,2013-08-11 23:49:00,
2013-08-11 19:54:00,70.4,60.9,29.94,NNW,331,0.0,0.0,72,0.00,,,0.00,Wunderground v.1.15,2013-08-11 23:54:00,
2013-08-11 20:04:00,69.6,60.9,29.94,NNW,331,0.0,0.0,74,0.00,,,0.00,Wunderground v.1.15,2013-08-12 00:04:00,
2013-08-11 20:09:00,69.2,60.6,29.95,NNW,331,0.0,0.0,74,0.00,,,0.00,Wunderground v.1.15,2013-08-12 00:09:00,
2013-08-11 20:14:00,68.8,60.6,29.95,NNW,331,0.0,0.0,75,0.00,,,0.00,Wunderground v.1.15,2013-08-12 00:14:00,
2013-08-11 20:24:00,68.1,59.9,29.95,NNW,331,0.0,0.0,75,0.00,,,0.00,Wunderground v.1.15,2013-08-12 00:24:00,
2013-08-11 20:29:00,67.8,59.6,29.95,NNW,331,0.0,0.0,75,0.00,,,0.00,Wunderground v.1.15,2013-08-12 00:29:00,
2013-08-11 20:39:00,67.2,59.4,29.95,NNW,331,0.0,0.0,76,0.00,,,0.00,Wunderground v.1.15,2013-08-12 00:39:00,
2013-08-11 20:49:00,66.8,59.0,29.95,NNW,332,0.0,0.0,76,0.00,,,0.00,Wunderground v.1.15,2013-08-12 00:49:00,
2013-08-11 20:54:00,66.7,59.3,29.95,NNW,331,0.0,0.0,77,0.00,,,0.00,Wunderground v.1.15,2013-08-12 00:54:00,
2013-08-11 20:59:00,66.5,59.1,29.95,NNW,331,0.0,0.0,77,0.00,,,0.00,Wunderground v.1.15,2013-08-12 00:59:00,
2013-08-11 21:04:00,66.4,59.0,29.95,NNW,331,0.0,0.0,77,0.00,,,0.00,Wunderground v.1.15,2013-08-12 01:04:00,
2013-08-11 21:09:00,66.3,58.9,29.95,NNW,332,0.0,0.0,77,0.00,,,0.00,Wunderground v.1.15,2013-08-12 01:09:00,
2013-08-11 21:14:00,66.2,59.1,29.95,NNW,331,0.0,0.0,78,0.00,,,0.00,Wunderground v.1.15,2013-08-12 01:14:00,
2013-08-11 21:19:00,66.1,59.0,29.96,NNW,331,0.0,0.0,78,0.00,,,0.00,Wunderground v.1.15,2013-08-12 01:19:00,
2013-08-11 21:24:00,65.9,58.8,29.96,NNW,331,0.0,0.0,78,0.00,,,0.00,Wunderground v.1.15,2013-08-12 01:24:00,
2013-08-11 21:30:00,65.7,59.0,29.96,NNW,331,0.0,0.0,79,0.00,,,0.00,Wunderground v.1.15,2013-08-12 01:30:00,
2013-08-11 21:35:00,65.5,58.8,29.96,NNW,331,0.0,0.0,79,0.00,,,0.00,Wunderground v.1.15,2013-08-12 01:35:00,
2013-08-11 21:44:00,65.0,58.7,29.96,NNW,332,0.0,0.0,80,0.00,,,0.00,Wunderground v.1.15,2013-08-12 01:44:00,
2013-08-11 21:49:00,64.8,58.8,29.97,NNW,332,0.0,0.0,81,0.00,,,0.00,Wunderground v.1.15,2013-08-12 01:49:00,
2013-08-11 21:59:00,64.4,58.8,29.97,NNW,331,0.0,0.0,82,0.00,,,0.00,Wunderground v.1.15,2013-08-12 01:59:00,
2013-08-11 22:05:00,64.3,58.7,29.97,NNW,331,0.0,0.0,82,0.00,,,0.00,Wunderground v.1.15,2013-08-12 02:05:00,
2013-08-11 22:14:00,64.0,58.7,29.97,NNW,331,0.0,0.0,83,0.00,,,0.00,Wunderground v.1.15,2013-08-12 02:14:00,
2013-08-11 22:19:00,63.8,58.5,29.97,NNW,331,0.0,0.0,83,0.00,,,0.00,Wunderground v.1.15,2013-08-12 02:19:00,
2013-08-11 22:24:00,63.7,58.8,29.96,NNW,332,0.0,0.0,84,0.00,,,0.00,Wunderground v.1.15,2013-08-12 02:24:00,
2013-08-11 22:34:00,63.5,58.9,29.97,NNW,331,0.0,0.0,85,0.00,,,0.00,Wunderground v.1.15,2013-08-12 02:34:00,
2013-08-11 22:39:00,63.3,58.7,29.97,NNW,331,0.0,0.0,85,0.00,,,0.00,Wunderground v.1.15,2013-08-12 02:39:00,
2013-08-11 22:44:00,63.2,58.9,29.97,NNW,331,0.0,0.0,86,0.00,,,0.00,Wunderground v.1.15,2013-08-12 02:44:00,
2013-08-11 22:49:00,63.0,58.7,29.97,NNW,331,0.0,0.0,86,0.00,,,0.00,Wunderground v.1.15,2013-08-12 02:49:00,
2013-08-11 22:54:00,62.8,58.5,29.97,NNW,331,0.0,0.0,86,0.00,,,0.00,Wunderground v.1.15,2013-08-12 02:54:00,
2013-08-11 23:05:00,62.5,58.6,29.97,NNW,331,0.0,0.0,87,0.00,,,0.00,Wunderground v.1.15,2013-08-12 03:05:00,
2013-08-11 23:14:00,62.2,58.6,29.97,NNW,331,0.0,0.0,88,0.00,,,0.00,Wunderground v.1.15,2013-08-12 03:14:00,
2013-08-11 23:24:00,62.0,58.4,29.96,NNW,331,0.0,0.0,88,0.00,,,0.00,Wunderground v.1.15,2013-08-12 03:24:00,
2013-08-11 23:29:00,61.9,58.6,29.96,NNW,331,0.0,0.0,89,0.00,,,0.00,Wunderground v.1.15,2013-08-12 03:29:00,
2013-08-11 23:34:00,61.8,58.5,29.96,NNW,331,0.0,0.0,89,0.00,,,0.00,Wunderground v.1.15,2013-08-12 03:34:00,
2013-08-11 23:39:00,61.7,58.4,29.96,NNW,331,0.0,0.0,89,0.00,,,0.00,Wunderground v.1.15,2013-08-12 03:39:00,
2013-08-11 23:44:00,61.6,58.3,29.96,NNW,331,0.0,0.0,89,0.00,,,0.00,Wunderground v.1.15,2013-08-12 03:44:00,
2013-08-11 23:49:00,61.5,58.5,29.96,NNW,331,0.0,0.0,90,0.00,,,0.00,Wunderground v.1.15,2013-08-12 03:49:00,
2013-08-11 23:59:00,61.2,58.2,29.96,NNW,331,0.0,0.0,90,0.00,,,0.00,Wunderground v.1.15,2013-08-12 03:59:00,